Regional Weather Roundup
Issued by NWS Kansas City/Pleasant Hill, MO

Home | Current Version | Previous Version | Graphics & Text | Print | Product List | Glossary Off
Versions: 1 2 3 4 5 6 7 8 9 10 11 12 13 14 15 16 17 18 19 20 21 22 23 24 25 26 27 28 29 30 31 32 33 34 35 36 37 38 39 40 41 42 43 44 45 46 47 48 49 50

000
ASUS43 KEAX 222304
RWREAX

WEATHER ROUNDUP FOR EASTERN KANSAS AND NORTHWEST MISSOURI
NATIONAL WEATHER SERVICE KANSAS CITY/PLEASANT HILL MO
600 PM CDT TUE JUL 22 2014

KSZ040-057-103>105-MOZ028-029-037-043-230000-
...KANSAS CITY METROPOLITAN AREA...

CITY           SKY/WX    TMP DP  RH WIND       PRES   REMARKS
K.C. INTL      MOSUNNY   94  77  57 SW6       30.01R HX 108
K.C. DOWNTOWN  MOSUNNY   98  72  42 W10       29.98R HX 107
LEES SUMMIT    PTSUNNY   94  76  55 SW5       30.01R HX 106
OLATHE - IXD   MOSUNNY   97  72  44 SW9       30.02R HX 105
OLATHE - OJC   MOSUNNY   96  71  44 SW8       30.01R HX 103
LAWRENCE       SUNNY    100  72  40 SW10      29.99S HX 109

$$

MOZ001>008-011>017-020>025-030>033-038>040-044>046-053-054-230000-
...NORTHERN AND CENTRAL MISSOURI...

CITY           SKY/WX    TMP DP  RH WIND       PRES   REMARKS
ST. JOSEPH     SUNNY     94  79  61 N3        30.00S HX 111
MOSBY          PTCLDY    95  72  46 W7        29.99R HX 103
WHITEMAN AFB   PTSUNNY   92  79  64 W7        29.99F HX 109
CLINTON        PTSUNNY   91  81  70 SW5       30.00S HX 110
SEDALIA        MOSUNNY   93  78  61 SW7       30.00F HX 108
WARSAW         NOT AVBL
MARSHALL       PTSUNNY   93  81  66 SW7       30.00S HAZE    HX 113
CHILLICOTHE      N/A     93  79  63 VRB3      29.99S HX 110
KIRKSVILLE     PTSUNNY   91  79  67 VRB5      30.01S HX 107

$$

MOZ041-047>049-056>058-063>065-088>090-097-230000-
...EASTERN AND SOUTHERN MISSOURI...

CITY           SKY/WX    TMP DP  RH WIND       PRES   REMARKS
ST. LOUIS INTL PTSUNNY   91  72  53 S9        30.01R HX  98
SPIRIT OF STL  PTSUNNY   90  73  57 SE7       29.99S HX  98
COLUMBIA       MOSUNNY   92  77  61 SW8       29.99S HX 105
JEFFERSON CITY MOSUNNY   93  76  57 SW7       29.97S HX 105
HANNIBAL       PTSUNNY   88  75  66 SE5       30.00S HAZE    HX  97
ROLLA          MOSUNNY   92  72  51 S8        30.01S HX  99
LEBANON        MOSUNNY   93  73  52 S7        30.04F HX 102
OSAGE BEACH    MOSUNNY   93  75  55 W8        30.00S HX 104
SPRINGFIELD    MOSUNNY   92  74  55 VRB5      30.05S HX 101
BRANSON        MOSUNNY   97  70  41 CALM      30.07F HX 103
NEVADA         MOSUNNY   91  77  62 SW5       30.02F HX 105
JOPLIN         MOSUNNY   94  74  52 SW9G21    30.04F HX 104
WEST PLAINS    MOSUNNY   87  71  58 S8        30.07F HX  93
MALDEN         SUNNY     90  68  48 SW8       30.03F HX  93

$$

IAZ060-094-KSZ022-034>040-054-083-096-NEZ052-066-093-230000-
...KANSAS...SOUTHEAST NEBRASKA AND IOWA...

CITY           SKY/WX    TMP DP  RH WIND       PRES   REMARKS
TOPEKA         SUNNY    102  67  31 VRB6      29.99S HX 107
MANHATTAN      SUNNY    103  66  30 W6        30.00S HX 107
EMPORIA        MOSUNNY   99  66  33 SW8       30.02S HX 103
CHANUTE        MOSUNNY   95  75  52 S7        30.02F HX 107
WICHITA        MOSUNNY   94  70  45 SE10      30.04S HX 100
OMAHA          MOSUNNY   89  69  51 N14       30.08R HX  93
LINCOLN        SUNNY     92  70  48 NE13      30.09S HX  97
FALLS CITY     SUNNY     95  79  59 N8        30.02R HX 112
LAMONI         MOSUNNY   91  80  70 N13G18    30.03R HX 109
DES MOINES     PTSUNNY   88  71  57 N17       30.03R HX  94

$$




USA.gov is the U.S. government's official web portal to all federal, state and local government web resources and services.